WV5G-13 Weather Reports


Display with metric or nautical units.
time (UTC)temp
F
wind
direction
speed
MPH
gust
MPH
rain 1hr
in
rain 24hr
in
rain mn
in
humidity
%
barometer
mb
20260902232740 87 162 4.0 11.0 0.00 0.00 0.00 40 1013.2
20260902232235 87 179 8.0 11.0 0.00 0.00 0.00 39 1013.5
20260902231734 87 173 9.0 10.0 0.00 0.00 0.00 40 1013.1
20260902231230 87 154 8.0 13.0 0.00 0.00 0.00 39 1013.1
20260902230725 87 145 9.0 11.0 0.00 0.00 0.00 41 1013.2
20260902230224 87 141 5.0 12.0 0.00 0.00 0.00 41 1013.3
20260902225719 89 153 8.0 16.0 0.00 0.00 0.00 36 1013.1
20260902225219 91 171 9.0 14.0 0.00 0.00 0.00 35 1013.3
20260902224717 90 182 9.0 13.0 0.00 0.00 0.00 34 1013.1
20260902224213 90 169 8.0 12.0 0.00 0.00 0.00 35 1013.3
20260902223709 91 196 11.0 16.0 0.00 0.00 0.00 36 1012.9
20260902223208 90 207 5.0 14.0 0.00 0.00 0.00 37 1013.2
20260902222707 90 159 5.0 13.0 0.00 0.00 0.00 36 1013.2
20260902222206 89 189 10.0 13.0 0.00 0.00 0.00 38 1013.0
20260902221701 88 203 10.0 13.0 0.00 0.00 0.00 40 1012.9
20260902221154 87 189 9.0 14.0 0.00 0.00 0.00 42 1013.2
20260902220650 85 209 5.0 14.0 0.00 0.00 0.00 46 1013.1
20260902220145 84 199 11.0 15.0 0.00 0.00 0.00 43 1013.5
20260902215641 83 201 13.0 17.0 0.00 0.00 0.00 47 1013.3
20260902215136 82 230 15.0 18.0 0.00 0.00 0.00 47 1013.3
20260902214631 83 208 7.0 13.0 0.00 0.00 0.00 49 1013.2
20260902214131 84 311 2.0 4.0 0.00 0.00 0.00 47 1013.5
20260902213626 83 52 6.0 7.0 0.00 0.00 0.00 46 1013.5
20260902213125 84 120 3.0 7.0 0.00 0.00 0.00 45 1013.8
20260902212621 83 223 8.0 11.0 0.00 0.00 0.00 45 1013.7
20260902212117 83 200 6.0 16.0 0.00 0.00 0.00 44 1013.3
20260902211613 85 210 10.0 26.0 0.00 0.00 0.00 47 1013.5
20260902211108 89 204 23.0 36.0 0.00 0.00 0.00 45 1013.6
20260902210607 93 219 11.0 12.0 0.00 0.00 0.00 30 1013.2
20260902205601 93 212 6.0 9.0 0.00 0.00 0.00 30 1013.5
20260902205056 94 226 13.0 15.0 0.00 0.00 0.00 29 1013.5
20260902204551 95 132 4.0 7.0 0.00 0.00 0.00 29 1013.3
20260902204045 93 228 4.0 7.0 0.00 0.00 0.00 29 1013.6
20260902203541 95 236 5.0 7.0 0.00 0.00 0.00 30 1013.3
20260902203039 95 226 6.0 7.0 0.00 0.00 0.00 30 1013.6
20260902202530 94 234 5.0 11.0 0.00 0.00 0.00 32 1013.9
20260902202026 94 211 7.0 16.0 0.00 0.00 0.00 30 1014.0
20260902201521 93 151 8.0 9.0 0.00 0.00 0.00 31 1013.9
20260902201015 93 203 10.0 12.0 0.00 0.00 0.00 31 1013.8
20260902200511 93 188 8.0 12.0 0.00 0.00 0.00 31 1014.0
20260902200007 93 185 8.0 15.0 0.00 0.00 0.00 30 1014.1
20260902195502 94 210 12.0 14.0 0.00 0.00 0.00 30 1014.2
20260902195000 92 192 7.0 10.0 0.00 0.00 0.00 31 1014.3
20260902194455 93 212 9.0 14.0 0.00 0.00 0.00 31 1014.3
20260902193950 93 216 7.0 11.0 0.00 0.00 0.00 31 1014.5
20260902193445 92 225 7.0 12.0 0.00 0.00 0.00 32 1014.5
20260902192944 92 224 9.0 17.0 0.00 0.00 0.00 31 1014.3
20260902192438 92 210 9.0 15.0 0.00 0.00 0.00 31 1014.7
20260902191937 93 176 5.0 12.0 0.00 0.00 0.00 31 1014.8
20260902191432 93 196 9.0 13.0 0.00 0.00 0.00 31 1014.7
20260902190927 93 176 7.0 14.0 0.00 0.00 0.00 31 1014.9
20260902190423 94 236 11.0 15.0 0.00 0.00 0.00 31 1014.9
20260902185918 95 156 8.0 18.0 0.00 0.00 0.00 31 1015.0
20260902185415 94 199 8.0 13.0 0.00 0.00 0.00 30 1015.0
20260902184915 93 195 12.0 17.0 0.00 0.00 0.00 32 1015.0
20260902184410 93 204 17.0 20.0 0.00 0.00 0.00 32 1015.2
20260902183905 93 194 12.0 13.0 0.00 0.00 0.00 32 1015.5
20260902183356 93 215 15.0 19.0 0.00 0.00 0.00 33 1015.5
20260902182852 91 222 13.0 17.0 0.00 0.00 0.00 34 1015.7
20260902182348 91 209 8.0 15.0 0.00 0.00 0.00 34 1016.0
20260902181845 90 206 9.0 14.0 0.00 0.00 0.00 35 1015.8
20260902181340 90 203 9.0 11.0 0.00 0.00 0.00 35 1015.9
20260902180838 90 206 5.0 20.0 0.00 0.00 0.00 35 1016.4
20260902180335 90 197 6.0 14.0 0.00 0.00 0.00 36 1016.4
20260902175824 90 204 8.0 16.0 0.00 0.00 0.00 35 1016.5
20260902175320 91 212 5.0 12.0 0.00 0.00 0.00 36 1016.5
20260902174815 91 203 7.0 13.0 0.00 0.00 0.00 34 1016.5
20260902174311 92 195 3.0 13.0 0.00 0.00 0.00 35 1016.2
20260902173807 91 205 12.0 14.0 0.00 0.00 0.00 34 1016.7
20260902173301 91 216 6.0 13.0 0.00 0.00 0.00 36 1016.7
20260902172756 91 235 14.0 18.0 0.00 0.00 0.00 35 1016.8
20260902172255 91 209 8.0 22.0 0.00 0.00 0.00 34 1016.8
20260902171750 90 197 11.0 12.0 0.00 0.00 0.00 36 1016.6
20260902171246 90 220 7.0 15.0 0.00 0.00 0.00 36 1016.7
20260902170742 90 202 5.0 12.0 0.00 0.00 0.00 36 1016.9
20260902170237 89 201 7.0 14.0 0.00 0.00 0.00 37 1016.9
20260902165732 89 237 11.0 21.0 0.00 0.00 0.00 38 1017.0
20260902165226 89 218 11.0 12.0 0.00 0.00 0.00 37 1017.0
20260902164726 89 211 11.0 16.0 0.00 0.00 0.00 37 1017.1
20260902164220 88 230 13.0 20.0 0.00 0.00 0.00 38 1017.1
20260902163715 88 201 8.0 16.0 0.00 0.00 0.00 38 1017.0
20260902163210 88 181 7.0 15.0 0.00 0.00 0.00 38 1017.2
20260902162708 87 218 9.0 18.0 0.00 0.00 0.00 39 1016.9
20260902162202 87 230 13.0 15.0 0.00 0.00 0.00 39 1017.1
20260902161657 87 213 10.0 16.0 0.00 0.00 0.00 39 1017.2
20260902161152 87 215 9.0 14.0 0.00 0.00 0.00 39 1017.0
20260902160645 86 202 12.0 17.0 0.00 0.00 0.00 40 1016.9
20260902160139 85 221 10.0 13.0 0.00 0.00 0.00 40 1017.2
20260902155637 84 223 9.0 15.0 0.00 0.00 0.00 41 1017.1
20260902155136 85 224 10.0 15.0 0.00 0.00 0.00 40 1017.1
20260902154631 86 226 7.0 12.0 0.00 0.00 0.00 40 1017.4
20260902154126 84 221 8.0 17.0 0.00 0.00 0.00 42 1017.0
20260902153625 84 227 12.0 15.0 0.00 0.00 0.00 41 1017.0
20260902153120 84 216 7.0 12.0 0.00 0.00 0.00 42 1016.9
20260902152617 84 241 8.0 13.0 0.00 0.00 0.00 42 1016.8
20260902152112 84 232 14.0 15.0 0.00 0.00 0.00 41 1016.9
20260902151607 84 224 14.0 15.0 0.00 0.00 0.00 41 1016.8
20260902151106 84 195 9.0 15.0 0.00 0.00 0.00 41 1016.9
20260902150601 83 205 8.0 12.0 0.00 0.00 0.00 41 1017.0
20260902150057 82 205 9.0 14.0 0.00 0.00 0.00 41 1016.9
20260902145552 82 221 6.0 14.0 0.00 0.00 0.00 43 1016.8
20260902145051 82 206 10.0 14.0 0.00 0.00 0.00 42 1016.9
20260902144549 81 206 7.0 13.0 0.00 0.00 0.00 43 1016.8
20260902144048 81 199 11.0 13.0 0.00 0.00 0.00 42 1016.9
20260902143543 81 184 7.0 14.0 0.00 0.00 0.00 43 1016.7
20260902143039 80 211 8.0 15.0 0.00 0.00 0.00 43 1016.9
20260902142534 80 202 6.0 12.0 0.00 0.00 0.00 43 1016.9
20260902142031 79 200 6.0 12.0 0.00 0.00 0.00 44 1016.6
20260902141530 79 199 11.0 11.0 0.00 0.00 0.00 45 1016.7
20260902141026 78 203 5.0 11.0 0.00 0.00 0.00 46 1016.9
20260902140525 77 209 8.0 10.0 0.00 0.00 0.00 47 1016.8
20260902140021 77 212 5.0 11.0 0.00 0.00 0.00 47 1016.7
20260902135515 77 207 9.0 11.0 0.00 0.00 0.00 47 1016.7
20260902135010 76 218 7.0 11.0 0.00 0.00 0.00 47 1016.7
20260902134506 76 198 8.0 11.0 0.00 0.00 0.00 48 1016.7
20260902134006 75 199 5.0 11.0 0.00 0.00 0.00 49 1016.8
20260902133500 75 169 6.0 12.0 0.00 0.00 0.00 50 1016.9
20260902132955 74 201 7.0 11.0 0.00 0.00 0.00 50 1016.5
20260902132450 74 210 6.0 9.0 0.00 0.00 0.00 50 1016.6
20260902131945 74 185 6.0 9.0 0.00 0.00 0.00 51 1016.4
20260902131442 74 199 5.0 10.0 0.00 0.00 0.00 51 1016.4
20260902130941 73 190 5.0 9.0 0.00 0.00 0.00 51 1016.4
20260902130437 74 188 5.0 9.0 0.00 0.00 0.00 51 1016.5
20260902125937 73 205 7.0 11.0 0.00 0.00 0.00 51 1016.2
20260902125433 73 202 6.0 6.0 0.00 0.00 0.00 51 1016.2
20260902124929 73 201 4.0 8.0 0.00 0.00 0.00 52 1016.1
20260902124425 73 186 5.0 6.0 0.00 0.00 0.00 52 1016.1
20260902123920 73 199 5.0 6.0 0.00 0.00 0.00 51 1016.2
20260902123417 73 203 5.0 10.0 0.00 0.00 0.00 51 1015.9
20260902122915 73 213 7.0 9.0 0.00 0.00 0.00 51 1016.0
20260902122411 73 213 5.0 8.0 0.00 0.00 0.00 51 1015.8
20260902121906 73 201 7.0 8.0 0.00 0.00 0.00 51 1015.6
20260902121401 73 202 7.0 10.0 0.00 0.00 0.00 52 1015.7
20260902120855 72 188 5.0 7.0 0.00 0.00 0.00 52 1015.6
20260902120347 72 221 3.0 7.0 0.00 0.00 0.00 52 1015.7
20260902115845 72 187 6.0 7.0 0.00 0.00 0.00 53 1015.5
20260902115342 72 200 2.0 7.0 0.00 0.00 0.00 53 1015.6
20260902114838 72 230 3.0 7.0 0.00 0.00 0.00 53 1015.7
20260902114334 72 212 5.0 9.0 0.00 0.00 0.00 52 1015.5
20260902113828 72 209 7.0 8.0 0.00 0.00 0.00 52 1015.2
20260902113323 73 212 8.0 9.0 0.00 0.00 0.00 51 1015.4
20260902112817 73 201 8.0 13.0 0.00 0.00 0.00 50 1015.2
20260902112314 73 186 9.0 11.0 0.00 0.00 0.00 50 1015.4
20260902111809 73 190 3.0 10.0 0.00 0.00 0.00 51 1015.4
20260902111305 73 205 6.0 7.0 0.00 0.00 0.00 51 1015.5
20260902110801 73 187 8.0 9.0 0.00 0.00 0.00 51 1015.5
20260902110257 73 177 5.0 9.0 0.00 0.00 0.00 50 1015.7
20260902105756 73 175 3.0 8.0 0.00 0.00 0.00 50 1015.6
20260902105251 73 201 6.0 8.0 0.00 0.00 0.00 50 1015.8
20260902104747 73 180 6.0 9.0 0.00 0.00 0.00 49 1015.8
20260902104243 73 204 5.0 8.0 0.00 0.00 0.00 49 1015.7
20260902103742 73 206 6.0 8.0 0.00 0.00 0.00 49 1015.6
20260902103236 74 244 3.0 9.0 0.00 0.00 0.00 49 1015.7
20260902102732 74 206 6.0 9.0 0.00 0.00 0.00 49 1015.8
20260902102230 74 222 6.0 10.0 0.00 0.00 0.00 49 1015.6
20260902101725 74 218 6.0 10.0 0.00 0.00 0.00 48 1015.6
20260902101220 74 199 4.0 11.0 0.00 0.00 0.00 48 1015.7
20260902100719 75 194 5.0 10.0 0.00 0.00 0.00 47 1015.8
20260902100214 75 199 7.0 11.0 0.00 0.00 0.00 47 1015.8
20260902095713 75 202 7.0 11.0 0.00 0.00 0.00 47 1016.0
20260902095208 75 207 6.0 9.0 0.00 0.00 0.00 47 1015.7
20260902094703 75 187 5.0 9.0 0.00 0.00 0.00 47 1016.0
20260902094200 75 207 4.0 10.0 0.00 0.00 0.00 47 1015.7
20260902093658 75 214 7.0 10.0 0.00 0.00 0.00 47 1015.9
20260902093154 75 198 7.0 11.0 0.00 0.00 0.00 46 1015.8
20260902092648 75 190 6.0 9.0 0.00 0.00 0.00 47 1015.9
20260902092142 75 210 5.0 8.0 0.00 0.00 0.00 47 1016.0
20260902091637 75 206 6.0 10.0 0.00 0.00 0.00 46 1015.8
20260902091134 75 196 7.0 11.0 0.00 0.00 0.00 46 1016.0
20260902090629 76 201 8.0 11.0 0.00 0.00 0.00 45 1015.7
20260902090128 75 195 6.0 11.0 0.00 0.00 0.00 46 1015.8
20260902085624 75 190 7.0 10.0 0.00 0.00 0.00 46 1016.1
20260902085118 75 193 6.0 11.0 0.00 0.00 0.00 46 1016.0
20260902084614 75 197 6.0 11.0 0.00 0.00 0.00 46 1016.1
20260902084110 75 212 5.0 11.0 0.00 0.00 0.00 46 1015.9
20260902083605 74 210 7.0 11.0 0.00 0.00 0.00 47 1016.1
20260902083104 73 193 4.0 7.0 0.00 0.00 0.00 48 1016.0
20260902082600 73 176 5.0 6.0 0.00 0.00 0.00 48 1016.1
20260902082057 73 145 6.0 6.0 0.00 0.00 0.00 47 1016.0
20260902081553 73 174 5.0 7.0 0.00 0.00 0.00 47 1016.2
20260902081048 74 200 4.0 7.0 0.00 0.00 0.00 47 1016.2
20260902080543 74 165 6.0 9.0 0.00 0.00 0.00 46 1016.1
20260902080039 74 157 7.0 7.0 0.00 0.00 0.00 46 1016.4
20260902075539 75 165 5.0 9.0 0.00 0.00 0.00 45 1016.1
20260902075035 75 191 5.0 7.0 0.00 0.00 0.00 45 1016.1
20260902074530 75 192 7.0 11.0 0.00 0.00 0.00 45 1016.1
20260902074025 75 189 6.0 10.0 0.00 0.00 0.00 45 1016.1
20260902073521 75 176 7.0 8.0 0.00 0.00 0.00 45 1016.2
20260902073017 75 218 4.0 6.0 0.00 0.00 0.00 46 1016.2
20260902072512 75 183 7.0 8.0 0.00 0.00 0.00 46 1016.5
20260902072009 75 187 6.0 7.0 0.00 0.00 0.00 46 1016.2
20260902071508 75 202 5.0 7.0 0.00 0.00 0.00 47 1016.4
20260902071005 75 197 3.0 6.0 0.00 0.00 0.00 47 1016.2
20260902070454 75 198 5.0 6.0 0.00 0.00 0.00 47 1016.2
20260902065953 75 159 3.0 5.0 0.00 0.00 0.00 47 1016.5
20260902065448 75 181 4.0 5.0 0.00 0.00 0.00 47 1016.0
20260902064943 75 219 4.0 5.0 0.00 0.00 0.00 47 1016.0
20260902064439 76 177 3.0 5.0 0.00 0.00 0.00 46 1016.4
20260902063934 76 191 3.0 5.0 0.00 0.00 0.00 47 1016.1
20260902063433 76 160 3.0 4.0 0.00 0.00 0.00 46 1016.1
20260902062929 77 138 3.0 4.0 0.00 0.00 0.00 45 1015.8
20260902062428 77 161 2.0 5.0 0.00 0.00 0.00 44 1016.1
20260902061923 78 131 3.0 6.0 0.00 0.00 0.00 44 1016.0
20260902061419 78 167 3.0 6.0 0.00 0.00 0.00 44 1016.1
20260902060915 78 167 3.0 6.0 0.00 0.00 0.00 44 1016.2
20260902060410 77 155 3.0 7.0 0.00 0.00 0.00 45 1016.0
20260902055906 78 133 4.0 5.0 0.00 0.00 0.00 44 1016.2
20260902055402 77 161 2.0 7.0 0.00 0.00 0.00 45 1016.2
20260902054857 77 137 5.0 6.0 0.00 0.00 0.00 46 1016.2
20260902054352 77 130 3.0 5.0 0.00 0.00 0.00 46 1016.2
20260902053842 77 138 5.0 6.0 0.00 0.00 0.00 46 1016.1
20260902053337 77 138 5.0 6.0 0.00 0.00 0.00 45 1016.1
20260902052836 78 140 5.0 6.0 0.00 0.00 0.00 45 1016.1
20260902052331 78 143 4.0 5.0 0.00 0.00 0.00 45 1016.1
20260902051825 78 141 4.0 6.0 0.00 0.00 0.00 45 1016.2
20260902051320 78 149 3.0 6.0 0.00 0.00 0.00 45 1016.2
20260902050814 77 140 4.0 6.0 0.00 0.00 0.00 46 1016.1
20260902050314 78 140 5.0 5.0 0.00 0.00 0.00 45 1016.1
20260902045809 78 131 6.0 6.0 0.00 0.00 0.00 46 1016.1
20260902045306 77 134 3.0 5.0 0.00 0.00 0.00 46 1016.2
20260902044801 77 138 5.0 6.0 0.00 0.00 0.00 47 1016.1
20260902044256 77 138 5.0 8.0 0.00 0.00 0.00 47 1016.1
20260902043750 77 139 6.0 7.0 0.00 0.00 0.00 48 1016.1
20260902043247 77 129 5.0 5.0 0.00 0.00 0.00 47 1016.0
20260902042745 77 125 4.0 5.0 0.00 0.00 0.00 46 1016.0
20260902042240 77 144 4.0 6.0 0.00 0.00 0.00 46 1016.0
20260902041736 78 142 4.0 6.0 0.00 0.00 0.00 45 1016.1
20260902041236 78 126 4.0 6.0 0.00 0.00 0.00 45 1016.2
20260902040735 78 131 3.0 6.0 0.00 0.00 0.00 45 1016.0
20260902040230 78 137 4.0 6.0 0.00 0.00 0.00 44 1016.1
20260902035729 78 134 5.0 6.0 0.00 0.00 0.00 43 1016.0
20260902035225 78 119 4.0 5.0 0.00 0.00 0.00 44 1016.0
20260902034724 79 122 3.0 5.0 0.00 0.00 0.00 43 1015.9
20260902034224 81 119 3.0 5.0 0.00 0.00 0.00 40 1015.9
20260902033722 81 133 5.0 7.0 0.00 0.00 0.00 39 1016.0
20260902033218 81 136 3.0 5.0 0.00 0.00 0.00 39 1015.8
20260902032716 82 141 4.0 5.0 0.00 0.00 0.00 38 1015.9
20260902032212 82 153 3.0 4.0 0.00 0.00 0.00 38 1015.9
20260902031711 81 139 3.0 6.0 0.00 0.00 0.00 39 1015.8
20260902031207 81 144 4.0 6.0 0.00 0.00 0.00 39 1015.7
20260902030702 81 140 7.0 8.0 0.00 0.00 0.00 38 1015.6
20260902030202 81 139 5.0 6.0 0.00 0.00 0.00 39 1015.6
20260902025656 82 142 5.0 6.0 0.00 0.00 0.00 38 1015.5
20260902025152 83 181 4.0 7.0 0.00 0.00 0.00 37 1015.6
20260902024647 83 198 3.0 7.0 0.00 0.00 0.00 37 1015.6
20260902024142 82 158 4.0 7.0 0.00 0.00 0.00 37 1015.4
20260902023637 83 130 4.0 6.0 0.00 0.00 0.00 37 1015.2
20260902023132 83 160 4.0 7.0 0.00 0.00 0.00 36 1015.1
20260902022631 83 145 5.0 6.0 0.00 0.00 0.00 36 1015.0
20260902022128 83 150 3.0 7.0 0.00 0.00 0.00 36 1014.9
20260902021623 83 180 2.0 3.0 0.00 0.00 0.00 37 1014.8
20260902021122 83 140 1.0 5.0 0.00 0.00 0.00 36 1014.8
20260902020618 83 168 3.0 6.0 0.00 0.00 0.00 36 1014.8
20260902020114 84 174 4.0 6.0 0.00 0.00 0.00 36 1014.9
20260902015609 84 183 4.0 5.0 0.00 0.00 0.00 35 1014.6
20260902015105 84 197 4.0 6.0 0.00 0.00 0.00 35 1014.6
20260902014601 85 162 4.0 6.0 0.00 0.00 0.00 34 1014.7
20260902014056 85 155 3.0 6.0 0.00 0.00 0.00 34 1014.8
20260902013555 85 167 2.0 7.0 0.00 0.00 0.00 34 1014.6
20260902013051 85 168 5.0 6.0 0.00 0.00 0.00 34 1014.5
20260902012547 86 184 3.0 5.0 0.00 0.00 0.00 33 1014.3
20260902012042 86 177 5.0 7.0 0.00 0.00 0.00 33 1014.8
20260902011537 87 153 3.0 7.0 0.00 0.00 0.00 33 1014.7
20260902011037 87 153 3.0 7.0 0.00 0.00 0.00 32 1014.7
20260902010536 87 179 5.0 7.0 0.00 0.00 0.00 32 1014.5
20260902010032 88 168 6.0 7.0 0.00 0.00 0.00 31 1014.3
20260902005530 89 177 6.0 8.0 0.00 0.00 0.00 31 1014.2
20260902005027 89 180 5.0 11.0 0.00 0.00 0.00 30 1014.1
20260902004526 90 185 7.0 10.0 0.00 0.00 0.00 30 1014.5
20260902004021 90 200 5.0 12.0 0.00 0.00 0.00 28 1014.3
20260902003517 91 195 10.0 12.0 0.00 0.00 0.00 28 1014.3
20260902003012 91 203 6.0 11.0 0.00 0.00 0.00 28 1014.3
20260902002508 91 191 7.0 10.0 0.00 0.00 0.00 28 1014.2
20260902002002 91 179 6.0 10.0 0.00 0.00 0.00 27 1014.2
20260902001456 92 215 3.0 11.0 0.00 0.00 0.00 27 1014.1
20260902000952 92 176 6.0 15.0 0.00 0.00 0.00 27 1014.2
20260902000447 92 212 8.0 13.0 0.00 0.00 0.00 26 1014.2
20260901235942 92 225 6.0 12.0 0.00 0.00 0.00 26 1014.0
20260901235437 93 215 9.0 10.0 0.00 0.00 0.00 26 1014.1
20260901234932 93 185 8.0 14.0 0.00 0.00 0.00 26 1014.0
20260901234426 93 217 6.0 11.0 0.00 0.00 0.00 26 1014.0
20260901233920 93 184 9.0 13.0 0.00 0.00 0.00 25 1013.9
20260901233410 93 183 3.0 12.0 0.00 0.00 0.00 25 1013.6
20260901232906 93 177 6.0 13.0 0.00 0.00 0.00 25 1013.7